{"data":{"norad_id":68522,"intl_designator":"2026-068Q","name":"STARLINK-36322","alt_names":[],"object_type":"PAYLOAD","status":"ACTIVE","operator":null,"country":"US","launch_date":"2026-03-30","launch_site_code":"AFETR","launch_vehicle":null,"mission":null,"orbit_class":"UNKNOWN","rcs_meters":null,"size_class":null,"mass_kg":null,"dimensions":null,"purposes":["comms"],"wikipedia_slug":null,"has_3d_model":false,"image_url":null,"decayed_at":null,"tle_current":{"epoch":"2026-09-19T18:08:49.056576Z","epoch_age_seconds":112235,"freshness":"FRESH","line1":"1 68522U 26068Q   26262.75612334  .00017526  00000+0  52885-3 0  9995","line2":"2 68522  53.1592 303.1433 0001943  40.6854 319.4294 15.34386184 26723","mean_motion":15.34386184,"eccentricity":0.0001943,"inclination_deg":53.1592,"raan_deg":303.1433,"arg_perigee_deg":40.6854,"mean_anomaly_deg":319.4294,"bstar":0.00052885,"rev_number":2672,"period_min":93.848603110206,"perigee_km":461.41512134134,"apogee_km":464.0734878163,"semimajor_km":6840.8813045788,"source":"CELESTRAK","updated_at":"2026-09-20T09:00:43.904899Z"}}}